sat.trackr.live / text

‹ back to catalog

STARLINK-31228

NORAD 58842 · 2024-017S

PAYLOAD ACTIVE UNKNOWN

§ Identity

Operator
Country
US
Launch date
2024-01-24
Launch site
AFWTR
Launch vehicle
Mass (kg)
RCS (m²)

Purposes: comms

External: N2YO · Heavens-Above · Gunter

§ Orbital elements

Epoch: 2026-09-20T14:44:51.048672Z

Period
93.85 min
Inclination
53.1627°
Eccentricity
0.0001273
Mean motion
15.34394841 rev/d
Perigee alt
461.8 km
Apogee alt
463.6 km
Semi-major
6,840.9 km
B*
1.2995e-4
RAAN
17.2483°
Arg perigee
78.1067°
Mean anomaly
282.0078°
Rev number
14,992

§ Raw data

STARLINK-312281 58842U 24017S   26263.61447973  .00004016  00000+0  12995-3 0  99902 58842  53.1627  17.2483 0001273  78.1067 282.0078 15.34394841149924

JSON: /api/v1/satellites/58842 · /tle

For live sub-satellite position, see the globe view (requires WebGL).

§ Visibility from observer

Set your observer location to see the next 7 days of passes ≥ 10°. The values pass through the URL so the page stays shareable.

No JS? Fill the form by hand. The geolocation button needs JavaScript.